Regional Weather Roundup
Issued by NWS

Home | Current Version | Previous Version | Graphics & Text | Print | Product List | Glossary On
Versions: 1 2 3 4 5 6 7 8 9 10 11 12 13 14 15 16 17 18 19 20 21 22 23 24 25 26 27 28 29 30 31 32 33 34 35 36 37 38 39 40 41 42 43 44 45 46 47 48 49 50
000
ASUS44 KMEG 180110
RWRTN
TENNESSEE HOURLY STATE WEATHER ROUNDUP
NATIONAL WEATHER SERVICE MEMPHIS TN
800 PM CDT FRI APR 17 2015

TNZ002-004-019-021-049-052-054-088>092-180200-
WEST TENNESSEE

CITY           SKY/WX    TMP DP  RH WIND       PRES   REMARKS
MEMPHIS INTL   PTCLDY    69  62  78 NE9       29.99R
NWS MEMPHIS      N/A     67 N/A N/A MISG        N/A
JACKSON        CLEAR     62  59  90 CALM      30.00F
DYERSBURG      CLOUDY    70  54  56 CALM      30.02R
UNION CITY     CLEAR     64  32  29 CALM      29.99F
PARIS          CLEAR     61  57  88 CALM      30.01S
LEXINGTON      CLEAR     64  61  88 SW5       30.00F
SAVANNAH       CLOUDY    64  32  29 CALM      30.01S
$$

TNZ008-025-027-028-033-062-065-066-180200-
NORTH MIDDLE TENNESSEE

CITY           SKY/WX    TMP DP  RH WIND       PRES   REMARKS
NASHVILLE      MOCLDY    66  61  84 CALM      30.02R
CLARKSVILLE    CLEAR     68  60  75 E3        30.01R
SMYRNA         CLOUDY    66  62  87 CALM      30.02R
COOKEVILLE     CLOUDY    66  63  88 CALM      30.01R
CROSSVILLE     CLOUDY    63  57  81 CALM      30.05R
$$

TNZ061-075-076-078-094-096-097-180200-
SOUTH MIDDLE TENNESSEE

CITY           SKY/WX    TMP DP  RH WIND       PRES   REMARKS
FAYETTEVILLE   MOCLDY    61  61 100 CALM      30.02R
TULLAHOMA      PTCLDY    64  59  82 CALM      30.03R
WINCHESTER     CLEAR     63  59  88 SE6       30.02S
MCMINNVILLE    CLEAR     66  63  88 NE5       30.02R
COLUMBIA       PTCLDY    64  32  29 CALM      30.01R
SHELBYVILLE    CLOUDY    66  64  94 CALM      30.03R
$$

TNZ017-018-042-046-047-180200-
NORTHEAST TENNESSEE

CITY           SKY/WX    TMP DP  RH WIND       PRES   REMARKS
TRI CITIES     CLOUDY    67  58  72 CALM      30.02S
ELIZABETHTON   CLEAR     63  57  82 CALM      30.03S
$$

TNZ012-013-036-069-073-074-180200-
CENTRAL EAST TENNESSEE

CITY           SKY/WX    TMP DP  RH WIND       PRES   REMARKS
KNOXVILLE      CLOUDY    64  60  87 NW7       30.01R
OAK RIDGE      CLOUDY    67  60  78 CALM      30.03R
GATLINBURG     CLEAR     64  59  82 CALM      30.00F
MORRISTOWN     CLEAR     66  61  82 CALM      30.03S
$$

TNZ083-085-099-180200-
SOUTHEAST TENNESSEE

CITY           SKY/WX    TMP DP  RH WIND       PRES   REMARKS
CHATTANOOGA    CLOUDY    62  61  96 CALM      30.03R
$$

SKY/WX REPORTED AS FAIR MEANS FEW OR NO CLOUDS BELOW
12 THOUSAND FEET.




USA.gov is the U.S. government's official web portal to all federal, state and local government web resources and services.